Location: Nitra
(0.0000°N, 18.0833°E)
Time: 05:37:37
(UTC+01:00)

NATO 3D Rocket - Pass Details

Date: 24 January 2021
Orbit: 670 x 2296 km, 21.5° (Epoch: 04 March)

Event Time Altitude Azimuth Distance (km) Brightness Sun altitude
Rises 19:00:17 0° 250° (WSW) 3,071 8.6 -14.3°
Reaches altitude 10° 19:02:42 10° 252° (WSW) 2,099 7.2 -14.8°
Maximum altitude 19:07:23 75° 337° (NNW) 698 3.3 -15.9°
Enters shadow 19:09:58 28° 58° (ENE) 1,311 4.1 -16.5°
